{"data":{"norad_id":63397,"intl_designator":"2025-064A","name":"TJS-16","alt_names":[],"object_type":"PAYLOAD","status":"ACTIVE","operator":null,"country":"PRC","launch_date":"2025-03-29","launch_site_code":"WSC","launch_vehicle":null,"mission":null,"orbit_class":"UNKNOWN","rcs_meters":null,"size_class":null,"mass_kg":null,"dimensions":null,"purposes":["comms"],"wikipedia_slug":null,"has_3d_model":false,"image_url":null,"decayed_at":null,"tle_current":{"epoch":"2026-05-24T18:24:49.648320Z","epoch_age_seconds":109352,"freshness":"FRESH","line1":"1 63397U 25064A   26144.76724130 -.00000108  00000+0  00000+0 0  9990","line2":"2 63397   1.0400  81.5629 0004077 286.9808 310.5881  1.00272384  4158","mean_motion":1.00272384,"eccentricity":0.0004077,"inclination_deg":1.04,"raan_deg":81.5629,"arg_perigee_deg":286.9808,"mean_anomaly_deg":310.5881,"bstar":0,"rev_number":415,"period_min":1436.0883251764,"perigee_km":35769.236547823,"apogee_km":35803.617533342,"semimajor_km":42164.564040582,"source":"CELESTRAK","updated_at":"2026-05-25T13:38:14.152689Z"}}}